GAOFEN 8

导读 | 星芒AI

高分八号(GAOFEN 8)卫星是中国高分辨率对地观测系统的重要组成部分,由国家航天局主导研制。该卫星主要用于国土普查、城市规划、环境监测等领域,具备高分辨率、多光谱成像能力。GAOFEN 8于2015年成功发射,运行在太阳同步轨道,为国家提供了高质量的遥感数据支持,提升了中国在遥感应用方面的自主能力。

基本信息
目录编号:
40701
目录名称:
GAOFEN 8
国际标识:
2015-030A
轨道中心:
EARTH
卫星名称:
GAOFEN 8
卫星全名:
--
卫星状态:
在轨 (已飞行3778 天)
发射日期:
2015-06-26 UTC
国别 :
中国 (CN)
星等 :
--
轨道信息
数据来源 国际轨道数据 AOE轨道数据
星历时间 2025-10-28T23:58:53+0800
14小时前
查看轨道信息
2025-10-28T07:00:00+0800
1天前
查看轨道信息
半长轴 6834.95km 6835km
偏心率 0.001081 0.0010572
轨道倾角 97.694° 97.694°
近地点辐角 307.009° 308.014°
升交点赤经 117.684° 116.944°
平近点角 53.017° 101.087°
近地点 449.426km 449.639km
远地点 464.204km 464.091km
周期 93.727分钟 93.728分钟
每日圈数 15.363842 15.363671
详细信息
使用方式:
暂无
2D轨道图
3D轨道图
轨道高度分析图
轨道倾角分析图
轨道综合分析图
查看轨道综合分析图